This is the latest recevied weather packets stored in our database for station/object W0AVQ. If no packets are shown the sender has not sent any weather packets the latest 10 day(s).
| Time | Temp. | Humidity | Pressure | Rain* | Wind** | Luminosity | Snow |
|---|---|---|---|---|---|---|---|
| 1777352832 | 20° C | 99% | 1011.9 hPa | 0 mm | - | 0 W/m² | - |
| 1777352531 | 20° C | 99% | 1011.5 hPa | 0 mm | - | 0 W/m² | - |
| 1777352228 | 20° C | 99% | 1011.1 hPa | 0 mm | - | 0 W/m² | - |
| 1777351925 | 20.56° C | 99% | 1011.1 hPa | 0 mm | - | 0 W/m² | - |
| 1777351623 | 20.56° C | 99% | 1010.9 hPa | 0 mm | - | 0 W/m² | - |
| 1777351320 | 20.56° C | 99% | 1011.4 hPa | 0 mm | - | 0 W/m² | - |
| 1777351020 | 20.56° C | 99% | 1011.5 hPa | 0 mm | - | 0 W/m² | - |
| 1777350716 | 20.56° C | 99% | 1011.6 hPa | 0 mm | - | 0 W/m² | - |
| 1777350412 | 20.56° C | 98% | 1011.9 hPa | 1.78 mm | - | 0 W/m² | - |
| 1777350109 | 20.56° C | 97% | 1011.6 hPa | 7.87 mm | - | 0 W/m² | - |
| 1777349806 | 21.11° C | 96% | 1012 hPa | 11.94 mm | - | 0 W/m² | - |
| 1777349504 | 21.11° C | 95% | 1011.4 hPa | 19.81 mm | - | 0 W/m² | - |
| 1777349202 | 21.67° C | 93% | 1010.2 hPa | 14.99 mm | - | 0 W/m² | - |
| 1777348898 | 22.22° C | 92% | 1010.9 hPa | 0 mm | - | 0 W/m² | - |
| 1777348597 | 22.22° C | 94% | 1010.7 hPa | 1.78 mm | - | 0 W/m² | - |
| 1777348294 | 22.78° C | 96% | 1010.4 hPa | 1.78 mm | - | 0 W/m² | - |
| 1777347992 | 23.33° C | 96% | 1010.8 hPa | 0 mm | - | 0 W/m² | - |
| 1777347690 | 23.89° C | 95% | 1010.7 hPa | 14.99 mm | - | 0 W/m² | - |
| 1777347387 | 23.33° C | 93% | 1010.6 hPa | 16.76 mm | - | 0 W/m² | - |
| 1777347082 | 25° C | 92% | 1010.1 hPa | 1.78 mm | - | 0 W/m² | - |
| 1777346779 | 25.56° C | 89% | 1009.2 hPa | 0 mm | - | 0 W/m² | - |
| 1777346475 | 25.56° C | 88% | 1009.9 hPa | 0 mm | - | 0 W/m² | - |
| 1777346172 | 25.56° C | 88% | 1009.6 hPa | 0 mm | - | 0 W/m² | - |
| 1777345869 | 25.56° C | 87% | 1009.1 hPa | 0 mm | - | 0 W/m² | - |
| 1777345567 | 25.56° C | 87% | 1009.3 hPa | 0 mm | - | 0 W/m² | - |
* Rain latest hour (hover to see other rain measurements)
** Current wind speed in m/s (hover to see current wind gust speed)